Time,TemperatureF,DewpointF,PressureIn,WindDirection,WindDirectionDegrees,WindSpeedMPH,WindSpeedGustMPH,Humidity,HourlyPrecipIn,Conditions,Clouds,dailyrainin,SoftwareType,DateUTC
2014-12-20 00:00:00,24.0,23.0,-100.00,East,85,0.0,2.0,97,0.00,,,-99.99,,2014-12-20 06:00:00,
2014-12-20 00:22:00,24.0,23.0,-100.00,East,85,0.0,2.0,97,0.00,,,-99.99,,2014-12-20 06:22:00,
2014-12-20 00:32:00,24.0,23.0,-100.00,East,85,0.0,2.0,97,0.00,,,-99.99,,2014-12-20 06:32:00,
2014-12-20 00:43:00,24.0,23.0,-100.00,East,85,0.0,2.0,97,0.00,,,-99.99,,2014-12-20 06:43:00,
2014-12-20 00:52:00,24.0,23.0,-100.00,East,85,0.0,2.0,97,0.00,,,-99.99,,2014-12-20 06:52:00,
2014-12-20 01:01:00,24.0,23.0,-100.00,SSE,150,3.0,8.0,95,0.00,,,-99.99,,2014-12-20 07:01:00,
2014-12-20 01:22:00,24.0,23.0,-100.00,SSE,150,3.0,8.0,95,0.00,,,-99.99,,2014-12-20 07:22:00,
2014-12-20 01:32:00,24.0,23.0,-100.00,SSE,150,3.0,8.0,95,0.00,,,-99.99,,2014-12-20 07:32:00,
2014-12-20 01:42:00,24.0,23.0,-100.00,SSE,150,3.0,8.0,95,0.00,,,-99.99,,2014-12-20 07:42:00,
2014-12-20 01:52:00,24.0,23.0,-100.00,SSE,150,3.0,8.0,95,0.00,,,-99.99,,2014-12-20 07:52:00,
2014-12-20 02:00:00,24.0,23.0,-100.00,SSE,150,6.0,11.0,95,0.00,,,-99.99,,2014-12-20 08:00:00,
2014-12-20 02:22:00,24.0,23.0,-100.00,SSE,150,6.0,11.0,95,0.00,,,-99.99,,2014-12-20 08:22:00,
2014-12-20 02:32:00,24.0,23.0,-100.00,SSE,150,6.0,11.0,95,0.00,,,-99.99,,2014-12-20 08:32:00,
2014-12-20 02:43:00,24.0,23.0,-100.00,SSE,150,6.0,11.0,95,0.00,,,-99.99,,2014-12-20 08:43:00,
2014-12-20 02:52:00,24.0,23.0,-100.00,SSE,150,6.0,11.0,95,0.00,,,-99.99,,2014-12-20 08:52:00,
2014-12-20 03:00:00,25.0,24.0,-100.00,SSE,150,4.0,7.0,95,0.00,,,-99.99,,2014-12-20 09:00:00,
2014-12-20 03:22:00,25.0,24.0,-100.00,SSE,150,4.0,7.0,95,0.00,,,-99.99,,2014-12-20 09:22:00,
2014-12-20 03:34:00,25.0,24.0,-100.00,SSE,150,4.0,7.0,95,0.00,,,-99.99,,2014-12-20 09:34:00,
2014-12-20 03:44:00,25.0,24.0,-100.00,SSE,150,4.0,7.0,95,0.00,,,-99.99,,2014-12-20 09:44:00,
2014-12-20 03:54:00,25.0,24.0,-100.00,SSE,150,4.0,7.0,95,0.00,,,-99.99,,2014-12-20 09:54:00,
2014-12-20 04:01:00,25.0,24.0,-100.00,SSE,160,4.0,9.0,95,0.00,,,-99.99,,2014-12-20 10:01:00,
2014-12-20 04:23:00,25.0,24.0,-100.00,SSE,160,4.0,9.0,95,0.00,,,-99.99,,2014-12-20 10:23:00,
2014-12-20 04:33:00,25.0,24.0,-100.00,SSE,160,4.0,9.0,95,0.00,,,-99.99,,2014-12-20 10:33:00,
2014-12-20 04:43:00,25.0,24.0,-100.00,SSE,160,4.0,9.0,95,0.00,,,-99.99,,2014-12-20 10:43:00,
2014-12-20 04:53:00,25.0,24.0,-100.00,SSE,160,4.0,9.0,95,0.00,,,-99.99,,2014-12-20 10:53:00,
2014-12-20 05:01:00,25.0,24.0,-100.00,SE,130,6.0,9.0,96,0.00,,,-99.99,,2014-12-20 11:01:00,
2014-12-20 05:22:00,25.0,24.0,-100.00,SE,130,6.0,9.0,96,0.00,,,-99.99,,2014-12-20 11:22:00,
2014-12-20 05:33:00,25.0,24.0,-100.00,SE,130,6.0,9.0,96,0.00,,,-99.99,,2014-12-20 11:33:00,
2014-12-20 05:42:00,25.0,24.0,-100.00,SE,130,6.0,9.0,96,0.00,,,-99.99,,2014-12-20 11:42:00,
2014-12-20 05:53:00,25.0,24.0,-100.00,SE,130,6.0,9.0,96,0.00,,,-99.99,,2014-12-20 11:53:00,
2014-12-20 06:00:00,25.0,24.0,-100.00,SSE,160,4.0,9.0,97,0.00,,,-99.99,,2014-12-20 12:00:00,
2014-12-20 06:22:00,25.0,24.0,-100.00,SSE,160,4.0,9.0,97,0.00,,,-99.99,,2014-12-20 12:22:00,
2014-12-20 06:32:00,25.0,24.0,-100.00,SSE,160,4.0,9.0,97,0.00,,,-99.99,,2014-12-20 12:32:00,
2014-12-20 06:42:00,25.0,24.0,-100.00,SSE,160,4.0,9.0,97,0.00,,,-99.99,,2014-12-20 12:42:00,
2014-12-20 06:52:00,25.0,24.0,-100.00,SSE,160,4.0,9.0,97,0.00,,,-99.99,,2014-12-20 12:52:00,
2014-12-20 07:00:00,25.0,25.0,-100.00,ESE,115,2.0,6.0,98,0.00,,,-99.99,,2014-12-20 13:00:00,
2014-12-20 07:22:00,25.0,25.0,-100.00,ESE,115,2.0,6.0,98,0.00,,,-99.99,,2014-12-20 13:22:00,
2014-12-20 07:32:00,25.0,25.0,-100.00,ESE,115,2.0,6.0,98,0.00,,,-99.99,,2014-12-20 13:32:00,
2014-12-20 07:42:00,25.0,25.0,-100.00,ESE,115,2.0,6.0,98,0.00,,,-99.99,,2014-12-20 13:42:00,
2014-12-20 07:52:00,25.0,25.0,-100.00,ESE,115,2.0,6.0,98,0.00,,,-99.99,,2014-12-20 13:52:00,
2014-12-20 08:00:00,26.0,25.0,-100.00,ENE,70,0.0,4.0,97,0.00,,,-99.99,,2014-12-20 14:00:00,
2014-12-20 08:22:00,26.0,25.0,-100.00,ENE,70,0.0,4.0,97,0.00,,,-99.99,,2014-12-20 14:22:00,
2014-12-20 08:32:00,26.0,25.0,-100.00,ENE,70,0.0,4.0,97,0.00,,,-99.99,,2014-12-20 14:32:00,
2014-12-20 08:42:00,26.0,25.0,-100.00,ENE,70,0.0,4.0,97,0.00,,,-99.99,,2014-12-20 14:42:00,
2014-12-20 08:52:00,26.0,25.0,-100.00,ENE,70,0.0,4.0,97,0.00,,,-99.99,,2014-12-20 14:52:00,
2014-12-20 09:01:00,-999.0,-99.9,-100.00,North,350,1.0,2.0,97,0.00,,,-99.99,,2014-12-20 15:01:00,
2014-12-20 09:22:00,26.0,26.0,-100.00,North,350,1.0,2.0,97,0.00,,,-99.99,,2014-12-20 15:22:00,
2014-12-20 09:38:00,26.0,26.0,-100.00,North,350,1.0,2.0,97,0.00,,,-99.99,,2014-12-20 15:38:00,
2014-12-20 09:51:00,-999.0,-99.9,-100.00,North,350,1.0,2.0,97,0.00,,,-99.99,,2014-12-20 15:51:00,
2014-12-20 09:59:00,-999.0,-99.9,-100.00,SSE,150,4.0,7.0,96,0.00,,,-99.99,,2014-12-20 15:59:00,
2014-12-20 10:00:00,26.0,-99.9,-100.00,North,350,1.0,2.0,97,0.00,,,-99.99,,2014-12-20 16:00:00,
2014-12-20 10:31:00,-999.0,-99.9,-100.00,SSE,150,4.0,7.0,96,0.00,,,-99.99,,2014-12-20 16:31:00,
2014-12-20 10:40:00,27.0,26.0,-100.00,SSE,150,4.0,7.0,96,0.00,,,-99.99,,2014-12-20 16:40:00,
2014-12-20 10:51:00,-999.0,-99.9,-100.00,SSE,150,4.0,7.0,96,0.00,,,-99.99,,2014-12-20 16:51:00,
2014-12-20 11:00:00,29.0,27.0,-100.00,ESE,120,3.0,8.0,93,0.00,,,-99.99,,2014-12-20 17:00:00,
2014-12-20 11:31:00,29.0,27.0,-100.00,ESE,120,3.0,8.0,93,0.00,,,-99.99,,2014-12-20 17:31:00,
2014-12-20 11:44:00,29.0,27.0,-100.00,ESE,120,3.0,8.0,93,0.00,,,-99.99,,2014-12-20 17:44:00,
2014-12-20 11:53:00,29.0,27.0,-100.00,ESE,120,3.0,8.0,93,0.00,,,-99.99,,2014-12-20 17:53:00,
2014-12-20 12:00:00,31.0,28.0,-100.00,ESE,105,4.0,7.0,87,0.00,,,-99.99,,2014-12-20 18:00:00,
2014-12-20 12:23:00,31.0,28.0,-100.00,ESE,105,4.0,7.0,87,0.00,,,-99.99,,2014-12-20 18:23:00,
2014-12-20 12:32:00,31.0,28.0,-100.00,ESE,105,4.0,7.0,87,0.00,,,-99.99,,2014-12-20 18:32:00,
2014-12-20 12:42:00,31.0,28.0,-100.00,ESE,105,4.0,7.0,87,0.00,,,-99.99,,2014-12-20 18:42:00,
2014-12-20 12:52:00,31.0,28.0,-100.00,ESE,105,4.0,7.0,87,0.00,,,-99.99,,2014-12-20 18:52:00,
2014-12-20 13:00:00,35.0,28.0,-100.00,SE,135,2.0,9.0,75,0.00,,,-99.99,,2014-12-20 19:00:00,
2014-12-20 13:23:00,35.0,28.0,-100.00,SE,135,2.0,9.0,75,0.00,,,-99.99,,2014-12-20 19:23:00,
2014-12-20 13:33:00,35.0,28.0,-100.00,SE,135,2.0,9.0,75,0.00,,,-99.99,,2014-12-20 19:33:00,
2014-12-20 13:43:00,35.0,28.0,-100.00,SE,135,2.0,9.0,75,0.00,,,-99.99,,2014-12-20 19:43:00,
2014-12-20 13:53:00,35.0,28.0,-100.00,SE,135,2.0,9.0,75,0.00,,,-99.99,,2014-12-20 19:53:00,
2014-12-20 14:22:00,32.0,27.0,-100.00,South,185,4.0,11.0,82,0.00,,,-99.99,,2014-12-20 20:22:00,
2014-12-20 14:32:00,32.0,27.0,-100.00,South,185,4.0,11.0,82,0.00,,,-99.99,,2014-12-20 20:32:00,
2014-12-20 14:42:00,32.0,27.0,-100.00,South,185,4.0,11.0,82,0.00,,,-99.99,,2014-12-20 20:42:00,
2014-12-20 14:52:00,32.0,27.0,-100.00,South,185,4.0,11.0,82,0.00,,,-99.99,,2014-12-20 20:52:00,
2014-12-20 15:01:00,31.0,28.0,-100.00,SSE,155,4.0,9.0,89,0.00,,,-99.99,,2014-12-20 21:01:00,
2014-12-20 15:22:00,31.0,28.0,-100.00,SSE,155,4.0,9.0,89,0.00,,,-99.99,,2014-12-20 21:22:00,
2014-12-20 15:34:00,31.0,28.0,-100.00,SSE,155,4.0,9.0,89,0.00,,,-99.99,,2014-12-20 21:34:00,
2014-12-20 15:43:00,31.0,28.0,-100.00,SSE,155,4.0,9.0,89,0.00,,,-99.99,,2014-12-20 21:43:00,
2014-12-20 15:54:00,31.0,28.0,-100.00,SSE,155,4.0,9.0,89,0.00,,,-99.99,,2014-12-20 21:54:00,
2014-12-20 16:01:00,31.0,28.0,-100.00,SE,140,3.0,8.0,90,0.00,,,-99.99,,2014-12-20 22:01:00,
2014-12-20 16:23:00,31.0,28.0,-100.00,SE,140,3.0,8.0,90,0.00,,,-99.99,,2014-12-20 22:23:00,
2014-12-20 16:33:00,31.0,28.0,-100.00,SE,140,3.0,8.0,90,0.00,,,-99.99,,2014-12-20 22:33:00,
2014-12-20 16:43:00,31.0,28.0,-100.00,SE,140,3.0,8.0,90,0.00,,,-99.99,,2014-12-20 22:43:00,
2014-12-20 16:53:00,31.0,28.0,-100.00,SE,140,3.0,8.0,90,0.00,,,-99.99,,2014-12-20 22:53:00,
2014-12-20 17:00:00,30.0,28.0,-100.00,SSE,160,4.0,7.0,92,0.00,,,-99.99,,2014-12-20 23:00:00,
2014-12-20 17:22:00,30.0,28.0,-100.00,SSE,160,4.0,7.0,92,0.00,,,-99.99,,2014-12-20 23:22:00,
2014-12-20 17:33:00,30.0,28.0,-100.00,SSE,160,4.0,7.0,92,0.00,,,-99.99,,2014-12-20 23:33:00,
2014-12-20 17:43:00,30.0,28.0,-100.00,SSE,160,4.0,7.0,92,0.00,,,-99.99,,2014-12-20 23:43:00,
2014-12-20 17:53:00,30.0,28.0,-100.00,SSE,160,4.0,7.0,92,0.00,,,-99.99,,2014-12-20 23:53:00,
2014-12-20 19:01:00,30.0,28.0,-100.00,SE,140,4.0,7.0,93,0.00,,,-99.99,,2014-12-21 01:01:00,
2014-12-20 19:22:00,30.0,28.0,-100.00,SE,140,4.0,7.0,93,0.00,,,-99.99,,2014-12-21 01:22:00,
2014-12-20 19:32:00,30.0,28.0,-100.00,SE,140,4.0,7.0,93,0.00,,,-99.99,,2014-12-21 01:32:00,
2014-12-20 19:42:00,30.0,28.0,-100.00,SE,140,4.0,7.0,93,0.00,,,-99.99,,2014-12-21 01:42:00,
2014-12-20 19:52:00,30.0,28.0,-100.00,SE,140,4.0,7.0,93,0.00,,,-99.99,,2014-12-21 01:52:00,
2014-12-20 20:22:00,30.0,28.0,-100.00,SE,145,4.0,9.0,93,0.00,,,-99.99,,2014-12-21 02:22:00,
2014-12-20 20:32:00,30.0,28.0,-100.00,SE,145,4.0,9.0,93,0.00,,,-99.99,,2014-12-21 02:32:00,